Weather History for Longville, MN

Change the Weather History Date:

Tuesday, February 12, 2013

  Actual Average (KPWC) Record (KPWC)
Temperature  
Mean Temperature 16 °F -  
Max Temperature 32 °F 25 °F 46 °F (2005)
Min Temperature 1 °F 5 °F -18 °F (1997)
Degree Days  
Heating Degree Days 48    
Moisture  
Dew Point 15 °F    
Average Humidity 80    
Maximum Humidity 100    
Minimum Humidity 60    
Precipitation  
Precipitation 0.03 in - - ()
Sea Level Pressure  
Sea Level Pressure 29.78 in    
Wind  
Wind Speed 4 mph (SSW)    
Max Wind Speed 8 mph    
Max Gust Speed -    
Visibility 10 miles    
Events Snow    
Averages and records for this station are not official NWS values.
T = Trace of Precipitation, MM = Missing Value Source: NWS Daily Summary

Daily Weather History Graph

Daily Weather History Graph

Search for Another Location

Airport:

Trip Planner

Search our weather history database for the weather conditions in past years. The results will help you decide how hot, cold, wet, or windy it might be!

Date:

Astronomy

Feb. 12, 2013 Rise Set
Actual Time 7:25 AM CST 5:37 PM CST
Civil Twilight 6:54 AM CST 6:08 PM CST
Nautical Twilight 6:18 AM CST 6:44 PM CST
Astronomical Twilight 5:43 AM CST 7:19 PM CST
Moon 8:09 AM CST (2/12) 8:54 PM CST (2/12)
Length of Visible Light 11h 14m
Length of Day
10h 11m
Waxing Crescent, 7% of the Moon is Illuminated
Feb 12
Waxing Crescent
Feb 17
First Quarter
Feb 25
Full
Mar 4
Last Quarter
Mar 11
New

Hourly Weather History & Observations

Time (CST) Temp. Windchill Dew Point Humidity Pressure Visibility Wind Dir Wind Speed Gust Speed Precip Events Conditions
12:16 AM 3.2 °F - -0.4 °F 85% 29.92 in 7.0 mi Calm Calm - N/A Snow Light Snow
12:36 AM 1.4 °F -6.2 °F -2.2 °F 85% 29.92 in 2.5 mi SW 3.5 mph - N/A Snow Light Snow
12:56 AM 1.4 °F - -0.4 °F 92% 29.92 in 7.0 mi Calm Calm - N/A   Scattered Clouds
1:16 AM 1.4 °F - -0.4 °F 92% 29.91 in 10.0 mi Calm Calm - N/A Snow Light Snow
1:36 AM 1.4 °F - -2.2 °F 85% 29.89 in 4.0 mi Calm Calm - N/A Snow Light Snow
1:56 AM 3.2 °F - -0.4 °F 85% 29.89 in 10.0 mi Calm Calm - N/A Snow Light Snow
2:16 AM 6.8 °F - 3.2 °F 85% 29.89 in 7.0 mi Calm Calm - N/A Snow Light Snow
2:36 AM 10.4 °F - 8.6 °F 92% 29.89 in 10.0 mi Calm Calm - N/A Snow Light Snow
2:56 AM 12.2 °F 4.3 °F 10.4 °F 92% 29.88 in 10.0 mi SW 4.6 mph - N/A Snow Light Snow
3:16 AM 12.2 °F 6.1 °F 10.4 °F 92% 29.88 in 10.0 mi SSW 3.5 mph - N/A Snow Light Snow
3:36 AM 12.2 °F 4.3 °F 10.4 °F 92% 29.87 in 10.0 mi SSW 4.6 mph - N/A   Overcast
3:56 AM 12.2 °F 6.1 °F 10.4 °F 92% 29.86 in 10.0 mi SW 3.5 mph - N/A   Overcast
4:16 AM 12.2 °F 6.1 °F 12.2 °F 100% 29.85 in 10.0 mi SSW 3.5 mph - N/A   Overcast
4:36 AM 14.0 °F 8.2 °F 12.2 °F 93% 29.86 in 10.0 mi SW 3.5 mph - N/A   Overcast
4:56 AM 14.0 °F 8.2 °F 12.2 °F 93% 29.85 in 10.0 mi South 3.5 mph - N/A   Overcast
5:16 AM 15.8 °F 10.2 °F 12.2 °F 86% 29.84 in 10.0 mi SSE 3.5 mph - N/A   Overcast
5:36 AM 12.2 °F 4.3 °F 12.2 °F 100% 29.84 in 10.0 mi South 4.6 mph - N/A   Mostly Cloudy
5:56 AM 12.2 °F 4.3 °F 12.2 °F 100% 29.83 in 10.0 mi South 4.6 mph - N/A   Clear
6:16 AM 14.0 °F 3.9 °F 12.2 °F 93% 29.83 in 10.0 mi South 6.9 mph - N/A   Mostly Cloudy
6:36 AM 14.0 °F 5.1 °F 12.2 °F 93% 29.82 in 10.0 mi South 5.8 mph - N/A   Mostly Cloudy
6:56 AM 15.8 °F 6.1 °F 12.2 °F 86% 29.82 in 10.0 mi South 6.9 mph - N/A   Mostly Cloudy
7:16 AM 15.8 °F 8.6 °F 12.2 °F 86% 29.82 in 10.0 mi South 4.6 mph - N/A   Scattered Clouds
7:36 AM 15.8 °F 6.1 °F 12.2 °F 86% 29.81 in 10.0 mi SSE 6.9 mph - N/A   Mostly Cloudy
7:56 AM 15.8 °F 6.1 °F 14.0 °F 93% 29.81 in 10.0 mi South 6.9 mph - N/A   Overcast
8:16 AM 15.8 °F 6.1 °F 14.0 °F 93% 29.80 in 10.0 mi South 6.9 mph - N/A   Scattered Clouds
8:36 AM 15.8 °F 7.2 °F 14.0 °F 93% 29.80 in 10.0 mi South 5.8 mph - N/A   Mostly Cloudy
8:56 AM 15.8 °F 7.2 °F 14.0 °F 93% 29.80 in 10.0 mi South 5.8 mph - N/A   Overcast
9:16 AM 17.6 °F 10.7 °F 15.8 °F 93% 29.80 in 10.0 mi South 4.6 mph - N/A   Overcast
9:36 AM 17.6 °F 9.3 °F 15.8 °F 93% 29.79 in 10.0 mi South 5.8 mph - N/A   Mostly Cloudy
9:56 AM 19.4 °F 11.5 °F 15.8 °F 86% 29.79 in 10.0 mi South 5.8 mph - N/A   Mostly Cloudy
10:16 AM 19.4 °F 10.4 °F 15.8 °F 86% 29.79 in 10.0 mi South 6.9 mph - N/A   Scattered Clouds
10:36 AM 19.4 °F 9.5 °F 15.8 °F 86% 29.80 in 10.0 mi SSW 8.1 mph - N/A   Scattered Clouds
10:56 AM 21.2 °F 13.6 °F 15.8 °F 80% 29.78 in 10.0 mi South 5.8 mph - N/A   Scattered Clouds
11:16 AM 21.2 °F 12.6 °F 17.6 °F 86% 29.79 in 10.0 mi SSW 6.9 mph - N/A   Scattered Clouds
11:36 AM 24.8 °F 17.9 °F 17.6 °F 74% 29.78 in 10.0 mi SSW 5.8 mph - N/A   Scattered Clouds
11:56 AM 24.8 °F 16.9 °F 17.6 °F 74% 29.77 in 10.0 mi South 6.9 mph - N/A   Mostly Cloudy
12:16 PM 26.6 °F 19.1 °F 17.6 °F 69% 29.76 in 10.0 mi SW 6.9 mph - N/A   Scattered Clouds
12:36 PM 26.6 °F 19.1 °F 17.6 °F 69% 29.75 in 10.0 mi South 6.9 mph - N/A   Scattered Clouds
12:56 PM 28.4 °F 22.2 °F 17.6 °F 64% 29.74 in 10.0 mi South 5.8 mph - N/A   Clear
1:16 PM 28.4 °F 23.3 °F 17.6 °F 64% 29.74 in 10.0 mi SSW 4.6 mph - 0.01 in   Clear
1:36 PM 30.2 °F 24.3 °F 17.6 °F 60% 29.74 in 10.0 mi SW 5.8 mph - 0.01 in   Clear
1:56 PM 30.2 °F 22.6 °F 17.6 °F 60% 29.74 in 10.0 mi SSW 8.1 mph - N/A   Clear
2:16 PM 30.2 °F 24.3 °F 19.4 °F 64% 29.74 in 10.0 mi SW 5.8 mph - N/A   Clear
2:36 PM 32.0 °F 26.4 °F 19.4 °F 60% 29.74 in 10.0 mi WSW 5.8 mph - 0.01 in   Clear
2:56 PM 32.0 °F 25.6 °F 19.4 °F 60% 29.73 in 10.0 mi SW 6.9 mph - 0.01 in   Clear
3:16 PM 32.0 °F 26.4 °F 19.4 °F 60% 29.73 in 10.0 mi SW 5.8 mph - 0.01 in   Clear
3:36 PM 30.2 °F 26.7 °F 19.4 °F 64% 29.73 in 10.0 mi SW 3.5 mph - 0.01 in   Mostly Cloudy
3:56 PM 30.2 °F 25.4 °F 21.2 °F 69% 29.73 in 10.0 mi SW 4.6 mph - N/A   Overcast
4:16 PM 30.2 °F 25.4 °F 19.4 °F 64% 29.73 in 10.0 mi WSW 4.6 mph - N/A   Mostly Cloudy
4:36 PM 30.2 °F 26.7 °F 19.4 °F 64% 29.73 in 10.0 mi SW 3.5 mph - N/A   Overcast
4:56 PM 30.2 °F 24.3 °F 21.2 °F 69% 29.73 in 10.0 mi SW 5.8 mph - N/A   Overcast
5:16 PM 30.2 °F 24.3 °F 21.2 °F 69% 29.73 in 10.0 mi SW 5.8 mph - N/A   Overcast
5:36 PM 28.4 °F 24.6 °F 21.2 °F 74% 29.73 in 10.0 mi SW 3.5 mph - N/A   Overcast
5:56 PM 28.4 °F 23.3 °F 21.2 °F 74% 29.73 in 10.0 mi SW 4.6 mph - N/A   Overcast
6:16 PM 28.4 °F 23.3 °F 21.2 °F 74% 29.73 in 10.0 mi SSW 4.6 mph - N/A   Overcast
6:36 PM 28.4 °F 22.2 °F 19.4 °F 69% 29.73 in 10.0 mi SW 5.8 mph - N/A   Overcast
6:56 PM 28.4 °F 22.2 °F 19.4 °F 69% 29.72 in 10.0 mi SW 5.8 mph - N/A   Overcast
7:16 PM 26.6 °F 20.0 °F 19.4 °F 74% 29.72 in 10.0 mi SW 5.8 mph - N/A   Overcast
7:36 PM 26.6 °F 21.2 °F 19.4 °F 74% 29.73 in 10.0 mi SW 4.6 mph - N/A   Overcast
7:57 PM 26.6 °F 19.1 °F 19.4 °F 74% 29.73 in 10.0 mi SW 6.9 mph - N/A   Overcast
8:16 PM 26.6 °F 19.1 °F 19.4 °F 74% 29.72 in 10.0 mi SW 6.9 mph - N/A   Scattered Clouds
8:36 PM 24.8 °F 17.9 °F 17.6 °F 74% 29.72 in 10.0 mi SW 5.8 mph - N/A   Scattered Clouds
8:56 PM 24.8 °F 16.9 °F 17.6 °F 74% 29.72 in 10.0 mi WSW 6.9 mph - N/A   Mostly Cloudy
9:16 PM 24.8 °F 16.1 °F 17.6 °F 74% 29.72 in 10.0 mi WSW 8.1 mph - N/A   Overcast
9:36 PM 24.8 °F 19.1 °F 17.6 °F 74% 29.72 in 10.0 mi WSW 4.6 mph - N/A   Overcast
9:56 PM 24.8 °F 17.9 °F 19.4 °F 80% 29.72 in 10.0 mi WSW 5.8 mph - N/A   Overcast
10:17 PM 24.8 °F 17.9 °F 19.4 °F 80% 29.72 in 10.0 mi WSW 5.8 mph - N/A   Overcast
10:36 PM 24.8 °F 20.5 °F 19.4 °F 80% 29.71 in 10.0 mi SW 3.5 mph - N/A   Overcast
10:56 PM 24.8 °F 19.1 °F 19.4 °F 80% 29.71 in 10.0 mi WSW 4.6 mph - N/A   Overcast
11:16 PM 24.8 °F 17.9 °F 19.4 °F 80% 29.70 in 10.0 mi SW 5.8 mph - N/A   Overcast
11:36 PM 24.8 °F 19.1 °F 19.4 °F 80% 29.70 in 10.0 mi WSW 4.6 mph - N/A   Overcast
11:56 PM 24.8 °F 19.1 °F 19.4 °F 80% 29.70 in 10.0 mi SW 4.6 mph - N/A   Overcast